Wind_Speed
24 22 21 20 20 19 20 22 23 22 22 22 21 21 21 21 21 22 22 23 24 24 25 24 23 23 25 24 22 22 22 23 23 24 24 25 25 25 26 26 27 28 29
26 24 22 20 20 20 20 23 24 25 25 24 23 23 24 25 25 25 25 25 25 26 26 25 25 25 25 26 25 25 24 25 25 26 27 28 28 29 31 31 32 33 34
28 25 23 21 20 21 20 20 21 23 24 24 26 27 28 29 30 26 26 26 26 26 26 27 27 26 26 26 26 27 27 27 28 29 30 31 32 33 34 36 37 38 39
31 28 25 24 22 21 21 22 22 22 24 26 27 29 31 30 29 29 28 27 28 29 29 28 28 29 29 28 28 29 29 29 30 31 33 34 35 37 38 39 40 42 43
32 30 28 26 25 23 23 23 23 24 26 27 30 31 33 33 30 30 29 29 30 31 30 30 30 29 30 30 30 30 31 31 32 33 35 36 38 39 41 42 44 45 47
31 31 29 27 27 26 25 25 26 28 30 31 33 35 35 34 33 32 31 31 31 31 31 30 31 31 31 31 32 32 33 34 35 36 37 39 40 41 43 45 47 49 50
31 32 32 31 30 29 29 29 30 31 32 34 36 37 38 36 35 34 34 33 31 32 32 32 33 33 33 33 33 35 36 37 38 39 40 42 43 44 46 48 50 52 54
32 32 32 32 32 32 33 34 34 35 36 38 38 38 37 38 37 35 35 34 35 34 34 34 34 35 35 36 37 39 40 41 42 43 44 45 47 48 50 52 54 55 57
34 35 36 36 36 37 37 38 38 39 40 40 39 40 39 38 38 38 37 37 36 36 36 36 37 38 38 40 42 43 44 45 46 48 49 50 52 54 55 57 58 59 59
36 37 38 38 39 40 42 42 43 42 41 41 42 43 43 43 42 42 41 39 38 39 39 40 41 42 43 45 46 47 49 50 51 53 54 55 56 58 58 60 61 61 62
39 39 39 41 42 42 43 44 44 44 45 45 45 45 45 45 44 44 42 41 42 43 43 44 45 47 48 49 50 52 54 55 56 57 57 58 59 61 61 62 62 63 63
40 40 41 41 41 42 43 44 45 46 46 47 47 47 47 46 45 44 44 44 46 46 47 48 50 51 52 53 55 57 58 59 60 60 60 60 61 62 63 63 63 63 63
40 39 39 40 41 41 41 42 43 44 45 45 45 45 45 45 45 45 46 47 48 49 51 52 53 54 55 57 58 59 59 60 60 60 61 61 62 62 63 62 62 62 62
40 40 39 38 39 38 38 38 39 40 40 41 42 42 42 43 44 45 46 48 49 51 53 53 54 55 56 57 59 59 59 61 61 61 62 62 62 61 61 61 61 60 60
39 40 40 39 38 38 37 37 39 39 38 38 40 42 42 43 44 46 47 49 50 51 52 54 56 57 57 58 59 59 60 61 62 62 62 61 60 60 59 58 58 58 57
38 38 38 37 36 35 35 36 37 37 38 39 39 39 41 43 44 45 46 47 48 50 52 53 56 57 58 58 58 59 60 61 61 60 59 58 57 56 55 54 53 51 50
32 33 33 33 32 31 31 31 32 32 33 34 34 36 37 38 40 42 44 46 48 50 52 54 56 57 57 58 58 58 59 58 57 55 54 53 51 49 48 47 45 44 42
28 28 28 27 27 29 29 29 28 29 30 32 33 35 36 38 40 42 44 46 47 49 51 53 54 55 56 56 56 55 54 52 50 48 47 45 43 42 40 39 39 37 36
22 22 23 23 24 25 26 27 28 29 30 32 34 36 37 39 40 42 43 45 46 48 49 51 51 52 53 52 51 50 48 46 45 42 41 38 37 34 33 32 31 30 28
19 20 21 22 22 23 24 26 27 28 29 31 32 34 35 36 38 39 41 42 44 45 46 46 47 47 47 45 44 42 41 39 36 34 32 31 29 27 26 24 23 22 20
17 18 18 19 20 21 23 24 25 26 27 29 30 32 33 34 35 36 38 39 40 41 41 41 41 40 39 38 35 33 31 29 27 25 23 22 20 19 18 17 16 15 13
15 16 17 18 19 20 22 23 23 25 26 27 28 29 30 31 33 34 35 35 35 36 36 36 35 33 32 29 27 25 22 20 18 16 14 13 12 11 11 10 9 9 9
13 14 15 17 18 20 21 21 22 22 23 24 25 26 28 29 30 30 30 31 31 31 31 30 29 27 25 23 21 18 15 13 12 10 8 7 7 7 7 7 7 8 9
12 14 15 16 18 19 19 19 19 19 20 22 23 24 25 26 27 27 27 27 27 26 25 24 22 21 19 16 13 11 10 8 7 7 7 7 7 7 8 8 8 9 10
11 12 14 15 16 17 17 17 17 18 19 20 21 21 23 23 23 23 23 23 21 21 20 19 17 15 13 10 9 8 8 8 8 9 10 10 10 10 10 10 10 11 12
11 13 14 15 15 16 16 16 16 17 18 18 19 20 20 20 20 20 20 19 18 18 17 15 14 12 10 9 9 9 10 10 10 11 11 11 11 11 12 12 12 13 14
Wind_Direction
231 228 225 228 233 241 245 246 246 249 251 253 258 260 262 264 269 271 272 276 277 279 279 281 279 281 280 281 283 281 281 283 284 285 284 285 285 285 285 285 287 288 288
229 229 228 232 237 244 248 248 248 247 250 254 259 263 266 269 268 269 274 278 281 283 281 284 282 281 281 281 281 280 279 281 283 283 282 282 283 282 282 283 284 285 286
229 228 229 235 238 242 246 248 249 253 254 256 261 265 269 272 271 274 279 281 284 289 289 286 284 282 284 285 281 279 279 280 281 281 282 282 282 282 282 282 283 284 286
229 231 234 238 241 242 243 247 252 259 264 266 268 270 273 276 279 281 286 288 287 289 287 286 285 283 284 285 283 280 279 281 282 282 282 282 283 283 282 283 284 284 285
229 233 236 239 243 245 246 251 256 263 268 270 276 277 276 276 279 289 293 292 292 291 287 287 284 283 284 284 282 281 281 283 283 282 283 283 284 284 283 284 285 285 285
228 232 236 241 245 247 249 254 259 265 269 272 274 275 276 279 284 291 293 294 293 292 289 286 285 285 284 283 283 283 284 284 284 283 284 285 285 285 285 285 286 286 286
229 233 237 241 246 249 251 256 261 265 269 271 273 275 280 282 286 290 293 295 292 292 290 288 287 286 286 284 284 285 286 285 286 286 286 287 287 287 287 287 287 287 288
235 239 241 245 249 252 255 259 262 266 269 272 275 279 283 285 289 292 294 293 292 290 287 288 287 287 288 287 286 288 287 287 287 288 288 288 288 288 288 288 288 288 288
243 246 249 251 254 257 259 261 264 267 269 271 274 278 283 286 289 292 292 291 290 288 287 287 287 288 288 287 288 289 289 289 289 289 289 288 289 289 289 289 289 288 289
250 253 255 257 259 261 262 263 265 268 269 272 276 280 282 284 286 288 290 289 288 288 289 289 287 288 288 289 289 289 290 290 290 289 289 289 289 290 290 290 289 289 288
257 259 260 262 264 264 264 264 266 267 269 272 275 278 279 281 283 285 286 285 286 287 288 287 288 289 290 291 290 290 291 290 290 289 289 289 290 290 290 289 289 288 288
261 263 264 265 265 266 265 265 266 268 269 271 274 276 278 279 279 280 280 282 285 286 286 288 289 289 289 289 289 289 290 290 289 289 289 289 289 289 289 289 288 288 288
263 265 267 268 268 269 268 267 267 268 269 269 270 272 274 274 277 278 279 281 283 285 286 287 287 287 288 289 290 290 290 289 288 288 288 288 288 288 288 288 288 288 288
265 268 270 273 272 271 271 271 269 267 268 270 272 273 274 275 278 280 281 282 284 285 286 286 287 287 287 287 288 288 288 288 288 287 287 288 288 288 288 289 289 290 290
269 269 271 275 275 272 274 274 274 274 274 274 274 275 276 278 281 282 284 285 285 286 286 286 287 287 287 287 287 287 288 288 288 288 288 289 289 289 289 290 290 291 291
272 272 274 278 278 276 276 277 276 276 276 277 279 281 282 282 283 283 284 284 285 285 286 286 287 287 288 288 289 289 290 290 290 290 290 290 290 290 291 291 292 292 292
274 275 276 276 275 277 278 278 278 276 277 277 280 283 284 284 284 285 285 285 286 287 288 289 289 290 291 291 291 291 291 291 291 291 291 291 291 292 292 293 293 293 294
274 275 276 277 277 279 279 278 280 280 280 281 283 284 286 287 288 288 288 288 289 290 291 292 292 292 292 293 294 294 294 293 292 292 292 292 293 294 294 295 296 298 299
277 276 277 277 277 280 280 279 281 283 284 284 285 287 289 290 291 291 291 292 293 294 294 294 295 295 295 295 295 295 294 293 293 292 292 293 294 295 296 297 299 301 303
273 276 278 277 280 281 280 281 284 285 286 287 288 290 292 293 294 295 296 297 298 299 299 299 300 300 299 299 298 297 296 296 296 296 296 296 296 298 299 300 303 306 310
274 276 277 278 281 283 285 287 289 289 291 292 293 294 296 297 299 300 300 301 302 303 303 303 303 303 303 303 303 302 301 301 301 301 300 300 302 304 306 309 313 316 320
278 279 281 284 287 290 291 293 293 294 295 297 298 299 301 302 303 304 305 306 307 307 308 308 308 307 307 308 309 308 309 310 310 310 311 313 315 319 323 328 334 338 342
286 287 288 291 294 296 298 297 297 299 300 301 302 304 305 306 307 309 310 311 312 312 312 313 313 313 314 315 315 316 317 320 326 332 339 347 354 360 5 7 9 10 10
291 292 294 297 299 301 301 302 302 303 306 307 308 310 311 312 314 316 316 316 316 318 319 321 321 322 324 325 329 335 342 352 7 22 36 43 45 41 37 34 30 25 20
304 304 304 305 305 305 305 306 306 308 310 312 314 316 318 320 321 323 324 324 325 327 329 332 335 338 343 350 1 13 27 43 55 59 62 62 59 54 46 41 37 32 28
313 311 310 309 308 307 307 307 309 312 314 316 318 321 323 326 327 330 331 332 333 337 343 349 355 3 13 27 42 52 60 65 68 71 70 67 61 54 49 47 42 37 31
Height
5854 5857 5860 5862 5864 5866 5867 5869 5870 5871 5871 5872 5872 5872 5872 5871 5870 5869 5868 5866 5864 5863 5863 5861 5860 5859 5858 5857 5856 5855 5854 5853 5852 5851 5849 5847 5846 5844 5842 5840 5839 5837 5835
5848 5852 5855 5857 5859 5861 5862 5863 5864 5865 5865 5865 5866 5865 5865 5864 5863 5861 5860 5859 5858 5857 5856 5854 5854 5853 5852 5851 5850 5849 5848 5847 5846 5844 5843 5841 5840 5837 5835 5833 5831 5829 5827
5844 5848 5850 5853 5855 5856 5856 5858 5859 5859 5859 5860 5860 5860 5859 5858 5856 5855 5854 5853 5852 5851 5850 5848 5847 5846 5846 5844 5843 5842 5841 5840 5839 5837 5836 5834 5832 5830 5828 5825 5823 5820 5818
5840 5843 5846 5848 5850 5851 5852 5853 5854 5854 5855 5854 5854 5853 5852 5851 5850 5848 5847 5846 5845 5844 5842 5841 5839 5838 5838 5837 5836 5835 5834 5832 5831 5829 5827 5826 5823 5821 5818 5816 5814 5811 5808
5835 5838 5841 5843 5845 5846 5848 5849 5849 5849 5849 5848 5847 5847 5845 5844 5843 5841 5840 5839 5838 5836 5834 5834 5832 5831 5830 5829 5828 5827 5825 5824 5822 5820 5818 5816 5814 5811 5809 5806 5803 5800 5798
5831 5834 5836 5838 5840 5841 5842 5843 5843 5843 5843 5842 5841 5840 5837 5836 5834 5833 5832 5831 5830 5828 5827 5825 5824 5823 5822 5821 5820 5818 5817 5815 5813 5811 5809 5806 5804 5801 5798 5795 5792 5788 5785
5826 5828 5830 5832 5833 5834 5835 5835 5836 5836 5835 5834 5833 5831 5829 5827 5826 5824 5824 5823 5822 5821 5820 5818 5816 5815 5813 5812 5811 5809 5807 5805 5803 5801 5799 5796 5793 5790 5787 5783 5779 5776 5772
5820 5822 5823 5825 5826 5827 5827 5827 5828 5827 5827 5825 5824 5822 5821 5819 5816 5815 5815 5815 5814 5813 5812 5810 5808 5806 5805 5803 5801 5799 5797 5795 5793 5790 5787 5784 5781 5778 5774 5770 5766 5762 5758
5813 5815 5817 5818 5819 5820 5820 5820 5820 5819 5818 5817 5816 5814 5812 5810 5808 5807 5807 5806 5805 5804 5802 5800 5798 5797 5795 5794 5792 5789 5787 5784 5781 5778 5775 5771 5768 5764 5760 5756 5752 5748 5744
5807 5808 5809 5810 5811 5812 5812 5812 5811 5810 5809 5808 5807 5806 5803 5802 5801 5800 5799 5797 5795 5794 5792 5791 5789 5787 5785 5783 5780 5777 5774 5771 5768 5764 5761 5757 5753 5749 5745 5741 5736 5732 5727
5799 5800 5801 5802 5802 5802 5803 5802 5802 5801 5800 5799 5798 5797 5795 5794 5792 5790 5789 5788 5786 5784 5782 5780 5778 5775 5773 5770 5767 5764 5761 5757 5753 5749 5745 5742 5737 5733 5729 5724 5719 5715 5710
5790 5791 5792 5792 5792 5792 5792 5792 5791 5791 5790 5789 5788 5786 5784 5783 5782 5780 5778 5777 5775 5773 5771 5769 5766 5763 5760 5757 5754 5750 5746 5742 5738 5734 5729 5725 5721 5716 5711 5706 5701 5697 5692
5781 5782 5782 5783 5783 5782 5782 5781 5781 5780 5780 5779 5777 5776 5774 5772 5771 5769 5767 5765 5763 5761 5758 5756 5753 5749 5746 5742 5739 5735 5731 5727 5722 5717 5713 5708 5704 5699 5694 5689 5684 5679 5674
5772 5773 5773 5773 5773 5773 5772 5772 5771 5770 5769 5768 5767 5765 5764 5762 5760 5758 5756 5753 5751 5748 5745 5742 5739 5735 5731 5727 5723 5719 5715 5711 5706 5701 5696 5691 5687 5682 5677 5672 5667 5663 5658
5763 5764 5764 5764 5764 5764 5763 5762 5762 5760 5759 5758 5756 5755 5753 5752 5749 5747 5744 5742 5739 5735 5731 5728 5724 5720 5716 5712 5707 5703 5699 5694 5689 5684 5679 5674 5669 5664 5660 5655 5651 5647 5642
5755 5755 5755 5755 5755 5754 5753 5753 5752 5751 5749 5748 5746 5744 5742 5740 5738 5735 5733 5729 5726 5722 5719 5714 5711 5706 5702 5697 5692 5688 5683 5678 5673 5668 5662 5657 5653 5648 5644 5640 5636 5632 5628
5747 5747 5746 5746 5746 5745 5744 5744 5742 5741 5739 5738 5736 5734 5731 5729 5726 5723 5721 5717 5713 5710 5705 5701 5697 5692 5687 5682 5677 5671 5667 5662 5657 5652 5647 5642 5638 5634 5630 5626 5622 5619 5616
5739 5739 5738 5738 5737 5736 5736 5734 5733 5732 5730 5728 5726 5724 5721 5718 5715 5712 5709 5705 5701 5697 5692 5688 5683 5678 5672 5667 5662 5656 5651 5647 5642 5638 5633 5629 5625 5622 5619 5616 5613 5610 5606
5732 5731 5731 5730 5729 5728 5727 5726 5725 5723 5721 5719 5717 5714 5711 5708 5705 5702 5698 5694 5689 5684 5680 5674 5669 5663 5658 5653 5648 5642 5638 5633 5629 5625 5621 5618 5615 5612 5610 5608 5604 5601 5599
5726 5725 5724 5724 5723 5721 5720 5719 5717 5715 5713 5711 5708 5705 5702 5699 5696 5692 5688 5683 5678 5673 5667 5662 5656 5651 5646 5640 5635 5630 5625 5621 5617 5614 5611 5609 5607 5605 5603 5601 5599 5596 5594
5720 5720 5719 5718 5716 5715 5714 5712 5710 5708 5705 5703 5700 5697 5694 5690 5687 5682 5678 5673 5668 5662 5657 5651 5646 5641 5635 5630 5625 5620 5616 5613 5609 5606 5604 5603 5601 5599 5598 5597 5595 5593 5591
5715 5714 5713 5712 5710 5709 5707 5705 5703 5701 5698 5695 5692 5689 5686 5682 5678 5674 5669 5664 5659 5653 5648 5642 5637 5632 5627 5622 5618 5614 5610 5607 5604 5602 5600 5599 5598 5597 5596 5595 5593 5592 5590
5710 5709 5708 5707 5705 5703 5701 5699 5697 5694 5692 5689 5686 5683 5679 5675 5671 5667 5661 5656 5651 5646 5641 5636 5630 5625 5621 5617 5613 5609 5606 5604 5602 5600 5599 5598 5597 5596 5595 5594 5593 5591 5590
5706 5705 5703 5702 5700 5698 5696 5693 5691 5688 5686 5683 5680 5677 5673 5669 5665 5660 5655 5651 5646 5641 5636 5631 5626 5621 5617 5613 5610 5608 5605 5603 5601 5600 5599 5598 5598 5597 5596 5595 5594 5592 5591
5703 5701 5699 5697 5695 5693 5691 5688 5686 5684 5681 5678 5675 5671 5668 5664 5660 5655 5651 5646 5641 5637 5632 5628 5623 5619 5616 5612 5610 5607 5606 5604 5603 5602 5601 5601 5600 5600 5599 5597 5596 5594 5592
5699 5698 5696 5693 5691 5689 5686 5684 5682 5679 5677 5674 5671 5667 5664 5660 5656 5652 5648 5643 5639 5635 5631 5627 5623 5619 5616 5613 5611 5609 5608 5607 5606 5605 5605 5604 5604 5603 5601 5600 5598 5596 5594